Regional Weather Roundup
Issued by NWS

Home | Current Version | Previous Version | Text Only | Print | Product List | Glossary Off
Versions: 1 2 3 4 5 6 7 8 9 10 11 12 13 14 15 16 17 18 19 20 21 22 23 24 25 26 27 28 29 30 31 32 33 34 35 36 37 38 39 40 41 42 43 44 45 46 47 48 49 50

870
ASUS45 KTFX 292210
RWRMT
MONTANA REGIONAL WEATHER ROUNDUP
NATIONAL WEATHER SERVICE GREAT FALLS MT
400 PM MDT FRI JUL 29 2016

NOTE: "FAIR" INDICATES FEW OR NO CLOUDS BELOW 12000 FEET WITH NO
SIGNIFICANT WEATHER AND/OR OBSTRUCTIONS TO VISIBILITY.

MTZ001>007-043-292300-
WEST OF THE DIVIDE

CITY           SKY/WX    TMP DP  RH WIND       PRES   REMARKS
KALISPELL      MOSUNNY   90  50  25 S8        29.95F
MISSOULA       SUNNY     93  41  16 NW8       29.96F
BUTTE          SUNNY     85  36  17 MISG      30.09F
MULLAN PASS    SUNNY     78  44  29 W6        30.17F
ANACONDA         N/A     84  45  24 N6        30.06F
DEER LODGE       N/A     84  41  21 SE3       30.07F
EUREKA           N/A     90  45  20 CALM      29.92F
HAMILTON         N/A     88  46  23 N6        29.97F
LIBBY            N/A     91  46  21 NW3       29.91F
RONAN            N/A     88  48  24 N2        30.02F
$$

MTZ008-052>055-292300-
SOUTHWEST MONTANA

CITY           SKY/WX    TMP DP  RH WIND       PRES   REMARKS
BOZEMAN        SUNNY     87  47  24 N6        30.04F
DILLON         SUNNY     86  44  23 NW3       30.06F
W YELLOWSTONE  SUNNY     81  28  15 N6G17     30.16F
ENNIS          SUNNY     84  36  17 VRB3      30.13F
THREE FORKS      N/A     88  88 100 E3        30.02F HX 121
TWIN BRIDGES     N/A     86  44  22 S7        30.04F
$$

MTZ009-010-012-014-046-048-049-054-292300-
EAST SLOPES AND CENTRAL MONTANA

CITY           SKY/WX    TMP DP  RH WIND       PRES   REMARKS
CUT BANK         N/A     82  51  34 VRB3      30.03F
GREAT FALLS    SUNNY     86  47  25 CALM      30.01F
MALMSTROM AFB  MOSUNNY   84  48  28 SE3G16    30.01F
HELENA         SUNNY     92  45  19 NE9       29.98F
CHOTEAU          N/A     86  48  26 E9G15     30.05F
CONRAD           N/A     84  56  38 N6        30.06F
$$

MTZ011-013-016-021-045-047-050-051-292300-
NORTH CENTRAL MONTANA

CITY           SKY/WX    TMP DP  RH WIND       PRES   REMARKS
HAVRE          PTSUNNY   87  52  29 NE7       29.98F
LEWISTOWN      MOSUNNY   81  53  37 N9        30.07F
N BAR RANCH      N/A     81  48  32 CALM      30.10F
CHINOOK          N/A     82  54  36 CALM      29.97F
$$

MTZ017>020-022>027-061-062-292300-
NORTHEAST MONTANA

CITY           SKY/WX    TMP DP  RH WIND       PRES   REMARKS
GLASGOW        SUNNY     80  55  42 S9        29.99F
JORDAN           N/A     81  57  43 E15       29.99F
SIDNEY         CLOUDY    78  41  26 SW3       30.00F
WOLF POINT     CLOUDY    81  52  36 VRB3      29.99F
PLENTYWOOD       N/A     72  57  60 E5        30.01S
POPLAR           N/A     81  48  32 S5        30.01F
SCOBEY           N/A     76  51  41 SE8       30.01F
$$

MTZ028>42-056>058-292300-
SOUTHCENTRAL AND SOUTHEAST MONTANA

CITY           SKY/WX    TMP DP  RH WIND       PRES   REMARKS
BAKER          SUNNY     77  54  44 W5        30.03F
BILLINGS       MOSUNNY   88  45  22 N7G17     30.00F
LIVINGSTON     SUNNY     90  44  20 MISG      30.04F
MILES CITY     LGT RAIN  80  53  39 NE7       29.99F
EKALAKA          N/A     80  48  32 E3        30.02F
FORSYTH          N/A     88  52  29 CALM      29.98F
LAUREL           N/A     87  49  26 NE7       30.00F
ROUNDUP          N/A     84  48  28 CALM      29.94F
$$

REGIONAL REPORTS...DAKOTAS

CITY           SKY/WX    TMP DP  RH WIND       PRES   REMARKS
WILLISTON      CLOUDY    80  47  31 SW3       30.00F
MINOT          CLOUDY    82  56  40 SE5       29.99F
DICKINSON      MOSUNNY   78  54  43 VRB5      30.00F
BEACH            N/A     77  52  41 CALM      30.06S
CROSBY           N/A     73  46  38 SW5       30.02F
WATFORD CITY     N/A    N/A N/A N/A MISG        N/A
BISMARCK       MOSUNNY   81  59  47 SE7       30.00F
GRAND FORKS    PTSUNNY   79  55  43 SW6       30.01F
FARGO          CLOUDY    81  58  45 N7        30.02F
BUFFALO SD       N/A     83  53  35 VRB5G16   29.96F
RAPID CITY     CLOUDY    71  58  63 S8        30.04F
$$

REGIONAL REPORTS...WYOMING/IDAHO/WASHINGTON

CITY           SKY/WX    TMP DP  RH WIND       PRES   REMARKS
GILLETTE       CLOUDY    82  45  27 N12       30.05F
SHERIDAN       SUNNY     89  44  20 VRB3      30.03F
BUFFALO WY     SUNNY     81  45  28 VRB3      30.10F
CODY           MOSUNNY   75  48  38 N8        30.09F
YELLOWSTONE LA   N/A     72  43  35 VRB5      30.26F
IDAHO FALLS    SUNNY     91  36  14 VRB6      30.03F
SALMON         SUNNY     91  45  19 NW6       29.94F
BOISE          SUNNY     98  40  13 NW10      29.90F HX  93
SPOKANE        MOSUNNY   95  43  16 VRB5      29.90F HX  91
$$

REGIONAL REPORTS...ALBERTA

CITY           SKY/WX    TMP DP  RH WIND       PRES   REMARKS
EDMONTON       SUNNY     81  52  36 W9        29.89F
CALGARY        MOSUNNY   79  50  36 SE14G21   30.00F
LETHBRIDGE     MOSUNNY   81  52  36 NE8       29.99F
MEDICINE HAT   MOSUNNY   90  55  31 SW7       29.97F
WATERTON GATE    N/A     75  54  46 NE6         N/A
CARDSTON         N/A     82  50  32 SE5         N/A
MILK RIVER       N/A     81  50  34 E2          N/A
ONEFOUR          N/A     82  45  26 NW8         N/A
$$

REGIONAL REPORTS...SASKATCHEWAN

CITY           SKY/WX    TMP DP  RH WIND       PRES   REMARKS
SWIFT CURRENT  MOSUNNY   75  61  60 NW8       29.98F
REGINA         PTSUNNY   77  59  53 W7        29.96F
SASKATOON      PTSUNNY   77  59  53 CALM      29.94F
CYPRESS HILLS    N/A     73  52  46 W6          N/A
VAL MARIE        N/A     79  54  41 E2          N/A
ROCKGLEN         N/A     72  55  56 S10         N/A
$$




USA.gov is the U.S. government's official web portal to all federal, state and local government web resources and services.